N4FLB Weather Reports


Display with metric or nautical units.
time (UTC)temp
F
wind
direction
speed
MPH
gust
MPH
rain 1hr
in
rain 24hr
in
rain mn
in
humidity
%
barometer
mb
20260508164525 66 78 2.0 6.0 0.00 0.00 0.00 72 1018.2
20260508163604 66 106 4.0 7.0 0.00 0.00 0.00 73 1018.2
20260508162704 66 78 3.0 8.0 0.00 0.00 0.00 72 1018.3
20260508161804 66 86 4.0 8.0 0.00 0.00 0.00 71 1018.0
20260508160924 66 95 3.0 9.0 0.00 0.00 0.00 72 1018.2
20260508160025 66 92 4.0 9.0 0.00 0.00 0.00 73 1018.2
20260508155404 66 77 4.0 9.0 0.00 0.00 0.00 72 1018.2
20260508154504 65 81 4.0 9.0 0.00 0.00 0.00 72 1018.4
20260508153603 65 104 4.0 10.0 0.00 0.00 0.00 73 1018.6
20260508152703 65 99 3.0 8.0 0.00 0.00 0.00 75 1018.3
20260508151803 65 90 4.0 8.0 0.00 0.00 0.00 75 1018.4
20260508150924 65 88 3.0 8.0 0.00 0.00 0.00 75 1018.5
20260508150004 64 91 3.0 7.0 0.00 0.00 0.00 75 1018.5
20260508145403 64 91 3.0 7.0 0.00 0.00 0.00 75 1018.5
20260508144503 64 88 3.0 9.0 0.00 0.00 0.00 76 1018.9
20260508143603 64 90 3.0 8.0 0.00 0.00 0.00 74 1019.1
20260508142704 64 92 3.0 8.0 0.00 0.00 0.00 75 1018.8
20260508141824 64 87 2.0 8.0 0.00 0.00 0.00 75 1018.8
20260508140903 64 100 3.0 6.0 0.00 0.00 0.00 78 1018.8
20260508140004 64 85 2.0 4.0 0.00 0.00 0.00 80 1019.0
20260508135403 64 88 2.0 7.0 0.00 0.00 0.00 81 1019.2
20260508134526 63 108 3.0 6.0 0.00 0.00 0.00 80 1019.3
20260508133626 63 87 2.0 7.0 0.00 0.00 0.00 81 1019.4
20260508132705 63 92 3.0 7.0 0.00 0.00 0.00 81 1019.4
20260508131805 63 119 3.0 7.0 0.00 0.00 0.00 81 1019.2
20260508130905 63 55 2.0 5.0 0.00 0.01 0.00 84 1019.2
20260508130005 63 357 1.0 4.0 0.00 0.01 0.00 87 1018.9
20260508125405 62 345 1.0 3.0 0.00 0.01 0.00 89 1018.8
20260508124505 62 20 0.0 2.0 0.00 0.01 0.00 90 1018.9
20260508123605 61 24 1.0 2.0 0.00 0.01 0.00 90 1018.6
20260508122705 60 16 0.0 2.0 0.00 0.01 0.00 92 1018.6
20260508121805 60 16 0.0 2.0 0.00 0.01 0.00 92 1018.5
20260508120926 60 25 1.0 4.0 0.00 0.01 0.00 93 1018.5
20260508120025 59 25 1.0 3.0 0.00 0.01 0.00 92 1018.3
20260508115426 59 18 0.0 2.0 0.00 0.01 0.00 93 1018.2
20260508114525 59 23 0.0 2.0 0.00 0.01 0.00 93 1018.1
20260508113626 59 23 0.0 2.0 0.00 0.01 0.00 93 1018.1
20260508112704 59 22 0.0 2.0 0.00 0.02 0.00 93 1018.0
20260508111805 59 24 1.0 2.0 0.00 0.02 0.00 93 1017.9
20260508110904 59 24 0.0 2.0 0.00 0.02 0.00 93 1017.9
20260508110004 59 23 0.0 2.0 0.00 0.02 0.00 93 1017.5
20260508105404 59 18 0.0 2.0 0.00 0.02 0.00 92 1017.6
20260508104504 59 18 0.0 2.0 0.00 0.02 0.00 92 1017.7
20260508103604 60 0 0.0 0.0 0.00 0.02 0.00 92 1017.6
20260508102705 60 24 0.0 1.0 0.00 0.02 0.00 91 1017.5
20260508101804 60 23 0.0 2.0 0.00 0.02 0.00 91 1017.3
20260508100904 60 21 0.0 1.0 0.00 0.02 0.00 91 1017.2
20260508100004 60 23 1.0 3.0 0.00 0.02 0.00 90 1016.9
20260508095404 60 21 1.0 3.0 0.00 0.02 0.00 90 1016.7
20260508094505 60 338 0.0 2.0 0.00 0.02 0.00 90 1016.7
20260508093604 60 332 1.0 3.0 0.00 0.02 0.00 90 1016.4
20260508092704 60 25 1.0 4.0 0.00 0.02 0.00 90 1015.9
20260508091804 60 354 0.0 3.0 0.00 0.03 0.00 90 1016.0
20260508090904 60 349 1.0 3.0 0.00 0.05 0.00 91 1016.0
20260508090005 60 341 1.0 3.0 0.00 0.06 0.00 91 1015.9
20260508085404 60 342 1.0 2.0 0.00 0.06 0.00 91 1016.0
20260508084504 60 348 0.0 2.0 0.00 0.06 0.00 91 1015.8
20260508082704 60 17 1.0 3.0 0.00 0.06 0.00 90 1015.6
20260508081804 61 22 1.0 4.0 0.00 0.06 0.00 90 1015.5
20260508080904 61 18 1.0 4.0 0.00 0.06 0.00 90 1015.6
20260508080025 61 360 1.0 4.0 0.00 0.06 0.00 90 1015.7
20260508075404 61 5 1.0 3.0 0.00 0.06 0.00 90 1015.6
20260508074525 61 1 2.0 4.0 0.00 0.06 0.00 90 1015.8
20260508073604 61 346 2.0 5.0 0.00 0.06 0.00 91 1016.0
20260508072704 61 348 1.0 5.0 0.00 0.06 0.00 91 1015.9
20260508071804 61 346 2.0 5.0 0.00 0.06 0.00 91 1015.8
20260508070925 62 346 2.0 4.0 0.00 0.06 0.00 92 1015.9
20260508070004 62 346 2.0 6.0 0.00 0.07 0.00 92 1015.8
20260508065404 62 349 2.0 6.0 0.00 0.07 0.00 92 1015.9
20260508064524 62 357 1.0 3.0 0.00 0.11 0.00 93 1015.9
20260508063603 62 343 1.0 3.0 0.00 0.11 0.00 93 1016.1
20260508062703 62 358 1.0 3.0 0.00 0.11 0.00 93 1015.9
20260508061803 62 353 1.0 4.0 0.00 0.11 0.00 94 1016.0
20260508060904 62 356 1.0 4.0 0.00 0.16 0.00 94 1016.3
20260508060004 62 6 1.0 2.0 0.00 0.18 0.00 95 1016.2
20260508055403 62 348 1.0 2.0 0.00 0.18 0.00 95 1016.2
20260508054503 62 342 0.0 2.0 0.00 0.18 0.00 96 1016.6
20260508053603 63 342 0.0 3.0 0.00 0.18 0.00 96 1016.8
20260508052703 63 333 1.0 3.0 0.00 0.23 0.00 96 1016.6
20260508051803 63 336 1.0 4.0 0.00 0.28 0.00 96 1016.9
20260508050903 63 337 2.0 4.0 0.00 0.32 0.00 96 1017.1
20260508050004 63 337 1.0 2.0 0.00 0.36 0.00 96 1016.8
20260508045403 63 335 1.0 3.0 0.00 0.38 0.36 95 1017.0
20260508044503 64 336 1.0 3.0 0.00 0.41 0.36 95 1017.0
20260508043626 64 334 0.0 2.0 0.00 0.99 0.36 95 1016.8
20260508042705 64 344 1.0 4.0 0.00 1.18 0.36 95 1016.8
20260508041805 64 339 1.0 4.0 0.00 1.19 0.36 94 1016.9
20260508040905 64 339 2.0 4.0 0.00 1.24 0.36 94 1016.9
20260508040025 64 328 2.0 4.0 0.00 1.80 0.36 94 1016.8
20260508035405 64 334 3.0 6.0 0.00 2.09 0.36 94 1017.0
20260508034505 64 341 2.0 6.0 0.00 2.14 0.36 95 1016.7
20260508033605 64 346 0.0 2.0 0.00 2.17 0.36 95 1016.7
20260508032704 64 339 0.0 1.0 0.00 2.33 0.36 95 1016.6
20260508031805 64 339 0.0 1.0 0.00 2.63 0.36 95 1016.7
20260508030926 64 0 0.0 0.0 0.00 2.90 0.36 94 1016.4
20260508030005 64 0 0.0 0.0 0.00 3.58 0.36 94 1016.5
20260508025405 64 339 0.0 1.0 0.00 3.60 0.36 94 1016.5
20260508024505 65 335 0.0 2.0 0.00 3.63 0.36 94 1016.4
20260508023604 65 331 0.0 1.0 0.00 3.64 0.36 94 1016.5
20260508022705 65 331 0.0 1.0 0.00 3.69 0.36 94 1016.6
20260508021804 65 317 0.0 2.0 0.00 3.69 0.36 93 1016.4
20260508020904 65 0 0.0 0.0 0.00 3.69 0.36 93 1016.2
20260508020004 65 0 0.0 0.0 0.00 3.69 0.36 92 1016.0
20260508015404 66 0 0.0 0.0 0.00 3.69 0.36 92 1016.1
20260508014504 66 298 0.0 1.0 0.00 3.69 0.36 91 1016.2
20260508013604 66 298 0.0 1.0 0.00 3.69 0.36 91 1016.0
20260508012704 66 298 0.0 1.0 0.00 3.69 0.36 90 1016.0
20260508011804 67 298 0.0 2.0 0.00 3.69 0.36 90 1015.7
20260508010904 67 0 0.0 0.0 0.00 3.70 0.36 89 1015.6
20260508010004 68 297 0.0 2.0 0.00 3.74 0.36 88 1015.7
20260508005425 68 299 0.0 2.0 0.00 3.84 0.36 87 1015.7
20260508004504 68 312 0.0 2.0 0.00 4.02 0.36 87 1015.7
20260508003605 68 309 1.0 2.0 0.00 4.36 0.36 86 1015.5
20260508002704 69 331 1.0 3.0 0.00 4.40 0.36 85 1015.5
20260508001804 69 319 2.0 4.0 0.00 4.41 0.36 85 1015.4
20260508000904 69 317 2.0 4.0 0.00 4.46 0.36 84 1015.5
20260508000004 70 331 2.0 4.0 0.00 4.52 0.36 84 1015.4
20260507235404 70 321 2.0 6.0 0.00 4.53 0.36 84 1015.3
20260507234504 70 312 2.0 5.0 0.00 4.59 0.36 83 1015.3
20260507233604 70 328 3.0 8.0 0.00 4.67 0.36 82 1015.2
20260507232726 70 318 3.0 9.0 0.00 4.67 0.36 82 1015.1
20260507231804 71 323 2.0 5.0 0.00 4.69 0.36 82 1015.1
20260507230903 71 322 2.0 5.0 0.00 4.70 0.36 81 1015.3
20260507230025 71 335 3.0 5.0 0.00 4.70 0.36 81 1015.2
20260507225404 71 325 3.0 6.0 0.00 4.70 0.36 80 1015.2
20260507224525 71 317 3.0 7.0 0.00 4.70 0.36 80 1015.1
20260507223604 71 327 3.0 8.0 0.00 4.70 0.36 80 1015.1
20260507222724 72 308 3.0 9.0 0.00 4.70 0.36 79 1014.8
20260507221804 72 321 4.0 10.0 0.00 4.70 0.36 80 1014.7
20260507220925 72 331 3.0 10.0 0.00 4.71 0.36 79 1014.7
20260507220024 71 332 4.0 10.0 0.00 4.72 0.36 81 1014.6
20260507215403 71 325 5.0 10.0 0.00 4.74 0.36 80 1014.9
20260507214503 71 323 4.0 10.0 0.00 4.79 0.36 80 1014.8
20260507213603 71 328 5.0 10.0 0.00 4.88 0.36 79 1014.8
20260507212704 72 326 5.0 9.0 0.00 4.94 0.36 79 1014.8
20260507211803 72 323 5.0 9.0 0.00 4.95 0.36 79 1014.4
20260507210903 72 327 6.0 11.0 0.00 4.95 0.36 79 1014.6
20260507210004 73 330 5.0 11.0 0.00 4.95 0.36 78 1014.5
20260507205404 73 354 4.0 10.0 0.00 4.95 0.36 80 1014.2
20260507204504 72 326 6.0 13.0 0.00 4.95 0.36 79 1014.5
20260507203624 72 339 4.0 10.0 0.00 4.95 0.36 81 1014.3
20260507202703 72 348 4.0 11.0 0.00 4.95 0.36 82 1014.5
20260507201803 73 349 4.0 10.0 0.00 4.95 0.36 80 1014.5
20260507200903 73 340 6.0 13.0 0.00 4.95 0.36 81 1014.5
20260507200025 74 333 6.0 14.0 0.00 4.96 0.36 79 1014.5
20260507195403 74 341 4.0 14.0 0.00 4.96 0.36 79 1014.4
20260507194524 74 348 5.0 13.0 0.00 4.96 0.36 81 1014.2
20260507193603 75 351 4.0 13.0 0.00 4.96 0.36 78 1014.3
20260507192705 75 346 5.0 11.0 0.00 4.96 0.36 81 1014.3
20260507191805 75 348 6.0 13.0 0.00 4.96 0.36 79 1014.4
20260507190905 75 341 5.0 10.0 0.00 4.96 0.36 80 1014.5
20260507190026 74 330 4.0 10.0 0.00 4.96 0.36 81 1014.5
20260507185405 74 338 3.0 9.0 0.00 4.96 0.36 82 1014.6
20260507184505 74 341 4.0 9.0 0.00 4.96 0.36 81 1014.6
20260507183626 74 349 4.0 11.0 0.00 4.96 0.36 83 1014.7
20260507182705 74 344 4.0 12.0 0.00 4.96 0.36 83 1014.7
20260507181805 74 326 5.0 11.0 0.00 4.96 0.36 83 1014.7
20260507180905 74 334 4.0 8.0 0.00 4.96 0.36 82 1014.6
20260507180005 74 338 4.0 10.0 0.00 4.96 0.36 82 1014.9
20260507175405 74 328 4.0 9.0 0.00 4.96 0.36 84 1015.0
20260507174505 74 321 5.0 9.0 0.00 4.96 0.36 83 1014.8
20260507173605 74 339 3.0 6.0 0.00 4.96 0.36 84 1014.9
20260507172705 74 335 2.0 5.0 0.00 4.96 0.36 84 1014.8
20260507171804 73 315 1.0 5.0 0.00 4.96 0.36 87 1014.9
20260507170925 72 6 3.0 5.0 0.00 4.96 0.36 86 1015.2
20260507170005 72 328 3.0 8.0 0.00 4.96 0.36 87 1015.3
20260507165425 72 344 2.0 10.0 0.00 4.96 0.36 88 1015.1